Location: Highridge
(54.0333°N, 114.1333°W)
Time: 13:28:09
(UTC+00:00)

Oscar 19 - Pass Details

Date: 05 December 2023
Orbit: 771 x 789 km, 98.9° (Epoch: 01 March)

Event Time Altitude Azimuth Distance (km) Brightness Sun altitude
Rises 13:38:26 0° 12° (NNE) 3,273 13.8 -16.3°
Reaches altitude 10° 13:40:53 10° 4° (N) 2,343 13.0 -16.0°
Maximum altitude 13:45:35 37° 299° (WNW) 1,208 11.1 -15.3°
Drops below altitude 10° 13:50:17 10° 233° (SW) 2,340 12.8 -14.7°
Sets 13:52:44 0° 226° (SW) 3,268 13.6 -14.3°
